TimeCDT,TemperatureF,Dew PointF,Humidity,Sea Level PressureIn,VisibilityMPH,Wind Direction,Wind SpeedMPH,Gust SpeedMPH,PrecipitationIn,Events,Conditions,WindDirDegrees,DateUTC
12:15 AM,60.8,55.4,82,29.91,10.0,NE,5.8,-,N/A,,Overcast,50,2011-10-12 05:15:00
12:35 AM,60.8,55.4,82,29.90,10.0,ENE,4.6,-,N/A,,Overcast,60,2011-10-12 05:35:00
12:55 AM,60.8,55.4,82,29.90,10.0,NE,5.8,-,N/A,,Overcast,50,2011-10-12 05:55:00
1:15 AM,60.8,55.4,82,29.90,10.0,ENE,4.6,-,N/A,,Overcast,70,2011-10-12 06:15:00
1:35 AM,60.8,55.4,82,29.90,10.0,ENE,4.6,-,N/A,,Overcast,70,2011-10-12 06:35:00
1:55 AM,60.8,55.4,82,29.89,10.0,ENE,3.5,-,N/A,,Overcast,60,2011-10-12 06:55:00
2:35 AM,60.8,55.4,82,29.88,10.0,NE,3.5,-,N/A,,Overcast,40,2011-10-12 07:35:00
2:55 AM,60.8,55.4,82,29.88,10.0,NNE,3.5,-,N/A,,Overcast,30,2011-10-12 07:55:00
3:15 AM,60.8,55.4,82,29.88,10.0,Calm,Calm,-,N/A,,Overcast,0,2011-10-12 08:15:00
3:35 AM,60.8,55.4,82,29.88,10.0,Calm,Calm,-,N/A,,Overcast,0,2011-10-12 08:35:00
3:55 AM,60.8,55.4,82,29.88,10.0,East,4.6,-,N/A,,Overcast,80,2011-10-12 08:55:00
4:15 AM,60.8,55.4,82,29.88,10.0,ENE,3.5,-,N/A,,Overcast,60,2011-10-12 09:15:00
4:35 AM,60.8,55.4,82,29.88,10.0,ENE,3.5,-,N/A,,Overcast,70,2011-10-12 09:35:00
4:55 AM,60.8,55.4,82,29.89,10.0,Calm,Calm,-,N/A,,Overcast,0,2011-10-12 09:55:00
5:15 AM,59.0,55.4,88,29.89,10.0,NNE,3.5,-,N/A,,Overcast,30,2011-10-12 10:15:00
5:35 AM,60.8,55.4,82,29.89,10.0,ENE,4.6,-,N/A,,Overcast,60,2011-10-12 10:35:00
5:55 AM,60.8,55.4,82,29.89,10.0,ENE,4.6,-,N/A,,Overcast,60,2011-10-12 10:55:00
6:35 AM,59.0,55.4,88,29.88,10.0,ENE,4.6,-,N/A,,Overcast,60,2011-10-12 11:35:00
6:55 AM,59.0,55.4,88,29.89,10.0,Calm,Calm,-,N/A,,Overcast,0,2011-10-12 11:55:00
7:15 AM,60.8,55.4,82,29.89,10.0,Calm,Calm,-,N/A,,Overcast,0,2011-10-12 12:15:00
7:35 AM,60.8,55.4,82,29.90,10.0,Calm,Calm,-,N/A,,Overcast,0,2011-10-12 12:35:00
7:55 AM,60.8,55.4,82,29.90,10.0,Calm,Calm,-,N/A,,Overcast,0,2011-10-12 12:55:00
8:15 AM,60.8,55.4,82,29.91,10.0,Calm,Calm,-,N/A,,Overcast,0,2011-10-12 13:15:00
8:35 AM,60.8,55.4,82,29.90,10.0,Calm,Calm,-,N/A,,Overcast,0,2011-10-12 13:35:00
8:55 AM,60.8,55.4,82,29.90,10.0,Calm,Calm,-,N/A,,Overcast,0,2011-10-12 13:55:00
9:15 AM,60.8,55.4,82,29.90,10.0,Calm,Calm,-,N/A,,Overcast,0,2011-10-12 14:15:00
9:35 AM,62.6,55.4,77,29.91,10.0,Calm,Calm,-,N/A,,Overcast,0,2011-10-12 14:35:00
10:15 AM,62.6,55.4,77,29.90,10.0,Calm,Calm,-,N/A,,Overcast,0,2011-10-12 15:15:00
10:35 AM,62.6,55.4,77,29.89,10.0,East,3.5,-,N/A,,Overcast,90,2011-10-12 15:35:00
10:55 AM,62.6,55.4,77,29.89,10.0,Calm,Calm,-,N/A,,Overcast,0,2011-10-12 15:55:00
11:15 AM,64.4,55.4,73,29.89,10.0,Calm,Calm,-,N/A,,Overcast,0,2011-10-12 16:15:00
11:35 AM,64.4,55.4,73,29.89,10.0,NW,3.5,-,N/A,,Overcast,310,2011-10-12 16:35:00
11:55 AM,64.4,57.2,77,29.89,10.0,Calm,Calm,-,N/A,,Overcast,0,2011-10-12 16:55:00
12:15 PM,64.4,57.2,77,29.88,10.0,North,3.5,-,N/A,,Overcast,350,2011-10-12 17:15:00
12:35 PM,64.4,57.2,77,29.87,10.0,North,3.5,-,N/A,,Overcast,350,2011-10-12 17:35:00
12:55 PM,64.4,57.2,77,29.86,10.0,North,3.5,-,N/A,,Overcast,360,2011-10-12 17:55:00
1:15 PM,64.4,57.2,77,29.85,10.0,NNE,4.6,-,N/A,,Overcast,30,2011-10-12 18:15:00
1:35 PM,64.4,57.2,77,29.84,10.0,Calm,Calm,-,N/A,,Unknown,0,2011-10-12 18:35:00
2:15 PM,64.4,57.2,77,29.83,10.0,WSW,3.5,-,N/A,,Overcast,240,2011-10-12 19:15:00
2:35 PM,64.4,57.2,77,29.82,10.0,Calm,Calm,-,N/A,,Overcast,0,2011-10-12 19:35:00
2:55 PM,64.4,57.2,77,29.82,10.0,Calm,Calm,-,N/A,,Overcast,0,2011-10-12 19:55:00
3:15 PM,64.4,57.2,77,29.82,10.0,WSW,3.5,-,N/A,,Overcast,240,2011-10-12 20:15:00
3:35 PM,64.4,57.2,77,29.81,10.0,Calm,Calm,-,N/A,,Overcast,0,2011-10-12 20:35:00
3:55 PM,64.4,57.2,77,29.81,10.0,SW,3.5,-,N/A,,Overcast,220,2011-10-12 20:55:00
4:35 PM,64.4,57.2,77,29.80,10.0,Calm,Calm,-,N/A,,Overcast,0,2011-10-12 21:35:00
4:55 PM,64.4,57.2,77,29.80,10.0,NNW,3.5,-,N/A,,Overcast,330,2011-10-12 21:55:00
5:15 PM,62.6,59.0,88,29.80,10.0,Calm,Calm,-,N/A,,Overcast,0,2011-10-12 22:15:00
5:35 PM,62.6,57.2,82,29.80,10.0,Calm,Calm,-,N/A,,Overcast,0,2011-10-12 22:35:00
5:55 PM,62.6,59.0,88,29.80,10.0,Calm,Calm,-,N/A,,Overcast,0,2011-10-12 22:55:00
6:15 PM,62.6,59.0,88,29.79,10.0,Calm,Calm,-,N/A,,Overcast,0,2011-10-12 23:15:00
6:35 PM,62.6,59.0,88,29.79,10.0,Calm,Calm,-,N/A,,Overcast,0,2011-10-12 23:35:00
6:55 PM,62.6,59.0,88,29.80,10.0,WSW,3.5,-,N/A,,Overcast,240,2011-10-12 23:55:00
7:15 PM,62.6,59.0,88,29.80,10.0,Calm,Calm,-,N/A,,Overcast,0,2011-10-13 00:15:00
7:35 PM,62.6,59.0,88,29.80,10.0,SW,3.5,-,N/A,,Overcast,220,2011-10-13 00:35:00
7:55 PM,62.6,57.2,82,29.81,10.0,SW,4.6,-,N/A,,Overcast,220,2011-10-13 00:55:00
8:15 PM,60.8,57.2,88,29.81,10.0,SW,3.5,-,N/A,,Overcast,230,2011-10-13 01:15:00
8:35 PM,60.8,57.2,88,29.82,10.0,Calm,Calm,-,N/A,,Overcast,0,2011-10-13 01:35:00
8:55 PM,60.8,57.2,88,29.82,10.0,Calm,Calm,-,N/A,,Overcast,0,2011-10-13 01:55:00
9:15 PM,60.8,57.2,88,29.83,10.0,Calm,Calm,-,N/A,,Overcast,0,2011-10-13 02:15:00
9:35 PM,60.8,59.0,94,29.82,10.0,Calm,Calm,-,N/A,,Overcast,0,2011-10-13 02:35:00
9:55 PM,60.8,57.2,88,29.82,10.0,Calm,Calm,-,N/A,,Overcast,0,2011-10-13 02:55:00
10:15 PM,60.8,57.2,88,29.81,10.0,Calm,Calm,-,N/A,,Overcast,0,2011-10-13 03:15:00
10:35 PM,60.8,57.2,88,29.81,10.0,SW,3.5,-,N/A,,Overcast,220,2011-10-13 03:35:00
11:15 PM,60.8,57.2,88,29.80,10.0,SSW,3.5,-,N/A,,Overcast,200,2011-10-13 04:15:00
11:35 PM,60.8,57.2,88,29.79,10.0,Calm,Calm,-,N/A,,Overcast,0,2011-10-13 04:35:00
11:55 PM,60.8,57.2,88,29.78,10.0,Calm,Calm,-,N/A,,Overcast,0,2011-10-13 04:55:00